Sisseton, SD

7:03 PM CST on January 21, 2018 (GMT -0600)
Sisseton

Weather History for K8D3 - September, 2013

Change the Weather History Date:

Saturday, September 28, 2013

  Actual Average Record
Temperature  
Mean Temperature 57 °F 54 °F  
Max Temperature 64 °F 67 °F 88 °F (2011)
Min Temperature 50 °F 42 °F 23 °F (1942)
Degree Days  
Heating Degree Days 8 11  
Month to date heating degree days 96 180  
Since 1 July heating degree days 145 223  
Cooling Degree Days 0 0  
Month to date cooling degree days 86 44  
Year to date cooling degree days 621 523  
Growing Degree Days 7 (Base 50)    
Moisture  
Dew Point 46 °F    
Average Humidity 70    
Maximum Humidity 100    
Minimum Humidity 39    
Precipitation  
Precipitation 1.09 in 0.09 in 1.09 in (2013)
Month to date precipitation 2.64 2.37  
Year to date precipitation 21.31 19.11  
Sea Level Pressure  
Sea Level Pressure 29.76 in    
Wind  
Wind Speed 11 mph (WNW)    
Max Wind Speed 23 mph    
Max Gust Speed 29 mph    
T = Trace of Precipitation, MM = Missing Value Source: NWS Daily Summary

Daily Weather History Graph

Daily Weather History Graph

Search for Another Location

Airport or City:

Trip Planner

Search our weather history database for the weather conditions in past years. The results will help you decide how hot, cold, wet, or windy it might be!

Date:

Astronomy

Sep. 28, 2013 Rise Set
Actual Time 7:22 AM CDT 7:13 PM CDT
Civil Twilight 6:53 AM CDT 7:42 PM CDT
Nautical Twilight 6:18 AM CDT 8:17 PM CDT
Astronomical Twilight 5:43 AM CDT 8:52 PM CDT
Moon 12:55 AM CDT (9/28) 3:47 PM CDT (9/28)
Length of Visible Light 12h 49m
Length of Day
11h 50m
Waning Crescent, 36% of the Moon is Illuminated
Sep 28
Waning Crescent
Oct 4
New
Oct 11
First Quarter
Oct 18
Full
Oct 26
Last Quarter

Hourly Weather History & Observations

Time (CDT) Temp. Dew Point Humidity Pressure Visibility Wind Dir Wind Speed Gust Speed Precip Events Conditions
12:56 AM 52.0 °F 51.1 °F 97% 29.70 in - NNE 9.2 mph 17.3 mph 0.14 in   Unknown
1:56 AM 51.1 °F 50.0 °F 96% 29.70 in - North 10.4 mph - 0.19 in   Unknown
2:56 AM 52.0 °F 51.1 °F 97% 29.74 in - NW 10.4 mph - 0.26 in   Unknown
3:56 AM 51.1 °F 51.1 °F 100% 29.65 in - NNE 9.2 mph 17.3 mph 0.20 in   Unknown
4:56 AM 51.1 °F 51.1 °F 100% 29.67 in - NNW 9.2 mph - 0.19 in   Unknown
5:56 AM 51.1 °F 50.0 °F 96% 29.65 in - NW 10.4 mph - 0.07 in   Unknown
6:56 AM 51.1 °F 50.0 °F 96% 29.68 in - NW 9.2 mph - 0.04 in   Unknown
7:56 AM 51.1 °F 50.0 °F 96% 29.68 in - NNW 13.8 mph 20.7 mph 0.05 in   Unknown
8:56 AM 50.0 °F 48.9 °F 96% 29.71 in - NW 11.5 mph - 0.03 in   Unknown
9:56 AM 50.0 °F 48.9 °F 96% 29.74 in - NW 12.7 mph - 0.06 in   Unknown
10:56 AM 52.0 °F 48.9 °F 89% 29.76 in - WNW 10.4 mph - 0.02 in   Unknown
11:56 AM 51.1 °F 48.0 °F 89% 29.78 in - WNW 12.7 mph - 0.01 in   Unknown
12:56 PM 55.9 °F 46.9 °F 72% 29.78 in - WNW 15.0 mph 24.2 mph N/A   Unknown
1:56 PM 59.0 °F 44.1 °F 58% 29.79 in - NW 17.3 mph 25.3 mph N/A   Unknown
2:56 PM 61.0 °F 44.1 °F 54% 29.79 in - WNW 16.1 mph 25.3 mph N/A   Unknown
3:56 PM 63.0 °F 43.0 °F 48% 29.79 in - WNW 13.8 mph 23.0 mph N/A   Unknown
4:56 PM 64.0 °F 39.9 °F 41% 29.79 in - WNW 16.1 mph 20.7 mph N/A   Unknown
5:56 PM 63.0 °F 37.9 °F 40% 29.81 in - WNW 10.4 mph - N/A   Unknown
6:56 PM 57.9 °F 41.0 °F 53% 29.83 in - West 4.6 mph - N/A   Unknown
7:56 PM 54.0 °F 42.1 °F 64% 29.84 in - WSW 6.9 mph - N/A   Unknown
8:56 PM 55.9 °F 43.0 °F 62% 29.85 in - WSW 5.8 mph - N/A   Unknown
9:56 PM 54.0 °F 43.0 °F 66% 29.86 in - WSW 8.1 mph - N/A   Unknown
10:56 PM 50.0 °F 42.1 °F 74% 29.87 in - WSW 6.9 mph - N/A   Unknown
11:56 PM 53.1 °F 43.0 °F 69% 29.87 in - WSW 9.2 mph - N/A   Unknown